DW4070 Weather Reports


Display with metric or nautical units.
time (UTC)temp
F
wind
direction
speed
MPH
gust
MPH
rain 1hr
in
rain 24hr
in
rain mn
in
humidity
%
barometer
mb
20220529081541 56 0 0.0 0.0 0.00 2.57 0.00 90 1014.6
20220529080045 56 0 0.0 0.0 0.00 2.57 0.00 90 1014.5
20220529074537 57 0 0.0 0.0 0.00 2.57 0.00 90 1014.3
20220529073041 57 0 0.0 0.0 0.00 2.57 0.00 90 1014.1
20220529071551 57 0 0.0 0.0 0.00 2.57 0.00 90 1014.0
20220529070043 57 0 0.0 0.0 0.00 2.57 0.00 90 1014.1
20220529064543 58 0 0.0 0.0 0.00 2.57 0.00 90 1013.9
20220529063041 58 0 0.0 0.0 0.00 2.57 0.00 90 1013.7
20220529061541 57 0 0.0 0.0 0.00 2.57 0.00 90 1013.4
20220529060048 57 0 0.0 0.0 0.00 2.57 0.00 89 1013.4
20220529054543 58 0 0.0 0.0 0.00 2.57 0.00 89 1013.5
20220529053038 58 0 0.0 0.0 0.00 2.57 0.00 89 1013.4
20220529051539 59 0 0.0 0.0 0.00 2.57 0.00 92 1013.4
20220529050037 59 0 0.0 0.0 0.00 2.57 0.00 89 1013.4
20220529044543 60 0 0.0 0.0 0.00 2.57 0.00 89 1013.3
20220529043047 60 0 0.0 0.0 0.00 2.57 0.00 90 1013.1
20220529041545 60 0 0.0 0.0 0.00 2.57 0.00 90 1012.9
20220529040054 61 0 0.0 0.0 0.00 2.57 0.00 89 1012.8
20220529034542 61 0 0.0 0.0 0.00 2.57 2.57 89 1012.7
20220529033040 61 0 0.0 0.0 0.00 2.57 2.57 89 1012.3
20220529031546 61 0 0.0 0.0 0.00 2.57 2.57 89 1012.0
20220529030042 62 0 0.0 0.0 0.00 2.57 2.57 89 1011.7
20220529024549 62 0 0.0 0.0 0.00 2.57 2.57 90 1011.5
20220529023047 63 0 0.0 0.0 0.00 2.57 2.57 89 1011.2
20220529021551 63 0 0.0 0.0 0.00 2.57 2.57 89 1011.0
20220529020045 63 0 0.0 0.0 0.00 2.57 2.57 89 1010.9
20220529014550 64 0 0.0 0.0 0.00 2.57 2.57 90 1010.7
20220529013045 64 0 0.0 0.0 0.00 2.57 2.57 89 1010.5
20220529011541 64 0 0.0 0.0 0.00 2.57 2.57 89 1010.3
20220529010042 64 0 0.0 0.0 0.00 2.57 2.57 89 1010.0
20220529004539 64 0 0.0 0.0 0.00 2.57 2.57 89 1009.6
20220529003044 65 0 0.0 0.0 0.00 2.57 2.57 89 1009.4
20220529001549 65 0 0.0 0.0 0.00 2.57 2.57 89 1009.2
20220529000059 65 0 0.0 0.0 0.00 2.57 2.57 89 1009.0
20220528234547 66 0 0.0 0.0 0.00 2.57 2.57 89 1008.6
20220528233047 66 0 0.0 0.0 0.00 2.57 2.57 89 1008.3
20220528231553 65 0 0.0 0.0 0.00 2.57 2.57 88 1008.1
20220528230100 65 0 0.0 0.0 0.00 2.57 2.57 88 1007.8
20220528224601 65 0 0.0 0.0 0.00 2.57 2.57 88 1007.7
20220528223051 65 0 0.0 0.0 0.00 2.57 2.57 88 1007.6
20220528221604 65 0 0.0 0.0 0.00 2.57 2.57 88 1007.5
20220528220052 65 0 0.0 0.0 0.00 2.57 2.57 88 1007.4
20220528214546 65 0 0.0 0.0 0.00 2.57 2.57 87 1007.6
20220528213053 65 0 0.0 0.0 0.00 2.57 2.57 86 1007.5
20220528211539 65 0 0.0 1.0 0.00 2.57 2.57 86 1007.5
20220528210051 66 0 0.0 0.0 0.00 2.57 2.57 86 1007.5
20220528204539 66 0 0.0 2.0 0.00 2.57 2.57 86 1007.3
20220528203047 66 0 0.0 3.0 0.00 2.57 2.57 85 1007.2
20220528201606 66 0 0.0 4.0 0.00 2.57 2.57 84 1007.1
20220528200059 66 0 0.0 3.0 0.00 2.57 2.57 85 1007.0
20220528194553 66 0 0.0 1.0 0.00 2.57 2.57 87 1007.0
20220528193053 65 0 0.0 3.0 0.00 2.57 2.57 88 1006.7
20220528191546 65 114 0.0 3.0 0.00 2.57 2.57 89 1006.2
20220528190043 65 0 0.0 3.0 0.00 2.57 2.57 89 1005.9
20220528184548 63 121 0.0 6.0 0.00 2.57 2.57 88 1006.2
20220528183052 63 0 0.0 3.0 1.28 2.57 2.57 88 1006.1
20220528181553 62 103 0.0 1.0 2.57 2.57 2.57 87 1006.6
20220528180049 62 0 0.0 3.0 2.57 2.57 2.57 84 1006.7
20220528174547 66 66 0.0 7.0 2.57 2.57 2.57 77 1006.4
20220528173041 71 0 0.0 2.0 1.29 1.29 1.29 76 1005.9
20220528171544 72 0 0.0 10.0 0.00 0.00 0.00 74 1005.6
20220528170048 73 139 0.0 7.0 0.00 0.00 0.00 75 1005.2
20220528164547 72 136 1.0 5.0 0.00 0.00 0.00 76 1005.4
20220528163052 71 213 1.0 7.0 0.00 0.00 0.00 78 1005.4
20220528161543 71 0 0.0 3.0 0.00 0.00 0.00 80 1005.2
20220528160054 72 0 0.0 4.0 0.00 0.00 0.00 78 1005.4
20220528154545 71 0 0.0 2.0 0.00 0.00 0.00 81 1005.5
20220528153046 69 0 0.0 1.0 0.00 0.00 0.00 85 1005.7
20220528151600 69 0 0.0 3.0 0.00 0.00 0.00 84 1006.1
20220528150045 68 0 0.0 2.0 0.00 0.00 0.00 86 1005.9
20220528144546 67 0 0.0 0.0 0.00 0.00 0.00 88 1006.4
20220528143041 67 0 0.0 2.0 0.00 0.00 0.00 89 1006.6
20220528141601 66 0 0.0 0.0 0.00 0.00 0.00 89 1006.2
20220528140041 66 0 0.0 0.0 0.00 0.00 0.00 90 1006.1
20220528134600 66 0 0.0 0.0 0.00 0.00 0.00 90 1006.2
20220528133102 66 0 0.0 0.0 0.00 0.00 0.00 90 1006.3
20220528131542 66 0 0.0 0.0 0.00 0.00 0.00 90 1006.2
20220528130041 66 0 0.0 0.0 0.00 0.00 0.00 90 1006.2
20220528124559 65 0 0.0 0.0 0.00 0.00 0.00 90 1006.2
20220528123057 65 0 0.0 0.0 0.00 0.00 0.00 90 1006.4
20220528121549 65 0 0.0 0.0 0.00 0.00 0.00 90 1006.3
20220528120055 65 0 0.0 0.0 0.00 0.00 0.00 90 1006.1
20220528114542 65 0 0.0 0.0 0.00 0.00 0.00 90 1005.9
20220528113056 65 0 0.0 1.0 0.00 0.00 0.00 90 1005.9
20220528111551 65 0 0.0 0.0 0.00 0.00 0.00 90 1006.1
20220528110043 64 0 0.0 0.0 0.00 0.00 0.00 90 1006.4
20220528104559 64 0 0.0 0.0 0.00 0.00 0.00 90 1006.3
20220528103038 64 0 0.0 0.0 0.00 0.00 0.00 90 1006.1
20220528101552 64 0 0.0 0.0 0.00 0.00 0.00 90 1005.9
20220528100048 64 0 0.0 0.0 0.00 0.00 0.00 90 1005.7
20220528094538 64 0 0.0 0.0 0.00 0.00 0.00 90 1005.6
20220528093041 64 0 0.0 0.0 0.00 0.00 0.00 90 1005.4
20220528091545 64 0 0.0 0.0 0.00 0.00 0.00 90 1005.5
20220528090044 64 0 0.0 0.0 0.00 0.00 0.00 90 1005.5
20220528084542 64 0 0.0 0.0 0.00 0.00 0.00 90 1005.4
20220528083050 63 0 0.0 0.0 0.00 0.00 0.00 90 1005.5